DW9313 Weather Reports


time (UTC)temp
F
wind
direction
speed
knots
gust
knots
rain 1hr
in
rain 24hr
in
rain mn
in
humidity
%
barometer
mb
20260901073237 59 284 0.0 1.7 0.00 0.00 0.00 91 1018.0
20260901072238 59 275 0.0 0.9 0.00 0.00 0.00 90 1017.9
20260901071737 59 138 0.0 0.0 0.00 0.00 0.00 91 1017.9
20260901071238 59 141 0.0 0.9 0.00 0.00 0.00 91 1018.0
20260901070738 58 109 0.0 0.0 0.00 0.00 0.00 92 1018.0
20260901065737 57 107 0.0 0.0 0.00 0.00 0.00 92 1017.9
20260901065238 57 107 0.0 0.0 0.00 0.00 0.00 92 1017.9
20260901064737 57 145 0.0 0.9 0.00 0.00 0.00 92 1017.9
20260901064239 56 112 0.0 0.0 0.00 0.00 0.00 92 1017.9
20260901063737 57 112 0.0 0.9 0.00 0.00 0.00 91 1018.0
20260901063238 57 127 0.0 0.0 0.00 0.00 0.00 92 1017.9
20260901062237 57 133 0.0 0.9 0.00 0.00 0.00 92 1018.0
20260901061738 57 24 0.0 0.9 0.00 0.00 0.00 91 1018.0
20260901061237 57 6 0.0 0.9 0.00 0.00 0.00 91 1018.0
20260901060738 57 6 0.0 0.9 0.00 0.00 0.00 91 1018.0
20260901060238 57 323 0.0 0.9 0.00 0.00 0.00 91 1018.0
20260901054740 57 311 0.0 1.7 0.00 0.00 0.00 91 1017.9
20260901054238 57 307 0.0 1.7 0.00 0.00 0.00 91 1017.9
20260901053739 57 307 0.0 0.9 0.00 0.00 0.00 91 1017.9
20260901053238 57 306 0.0 1.7 0.00 0.00 0.00 91 1017.8
20260901052238 57 285 0.0 0.9 0.00 0.00 0.00 91 1017.7
20260901051739 57 299 0.9 1.7 0.00 0.00 0.00 91 1017.7
20260901051239 57 297 0.9 1.7 0.00 0.00 0.00 91 1017.6
20260901050740 57 299 0.0 1.7 0.00 0.00 0.00 91 1017.7
20260901050239 56 297 0.0 1.7 0.00 0.00 0.00 91 1017.7
20260901045738 56 287 0.9 1.7 0.00 0.00 0.00 92 1017.8
20260901045238 56 326 0.0 1.7 0.00 0.00 0.00 92 1017.7
20260901044739 56 286 0.0 0.9 0.00 0.00 0.00 91 1017.7
20260901044238 55 285 0.0 1.7 0.00 0.00 0.00 91 1017.7
20260901043739 55 276 0.0 1.7 0.00 0.00 0.00 91 1017.7
20260901042739 56 285 0.0 0.9 0.00 0.00 0.00 90 1017.7
20260901042240 56 287 0.0 0.9 0.00 0.00 0.00 91 1017.7
20260901041740 56 311 0.0 0.0 0.00 0.00 0.00 90 1017.7
20260901041239 56 311 0.0 0.0 0.00 0.00 0.00 90 1017.7
20260901040740 56 311 0.0 0.0 0.00 0.00 0.00 90 1017.7
20260901035747 56 294 0.0 0.9 0.00 0.00 0.00 89 1017.6
20260901034745 56 287 0.0 0.9 0.00 0.00 0.00 90 1017.6
20260901034244 56 291 0.0 0.0 0.00 0.00 0.00 89 1017.6
20260901033742 56 291 0.0 0.0 0.00 0.00 0.00 89 1017.6
20260901033239 56 291 0.0 0.0 0.00 0.00 0.00 89 1017.7
20260901032739 56 291 0.0 0.9 0.00 0.00 0.00 89 1017.7
20260901032240 56 287 0.0 0.9 0.00 0.00 0.00 90 1017.7
20260901031240 56 320 0.9 2.6 0.00 0.00 0.00 91 1017.7
20260901030740 55 288 0.0 0.9 0.00 0.00 0.00 91 1017.7
20260901030239 55 291 0.0 1.7 0.00 0.00 0.00 91 1017.8
20260901025740 55 138 0.0 0.9 0.00 0.00 0.00 91 1017.7
20260901025240 55 121 0.0 0.9 0.00 0.00 0.00 92 1017.7
20260901024739 55 115 0.0 4.3 0.00 0.00 0.00 92 1017.7
20260901024240 54 106 0.0 0.0 0.00 0.00 0.00 93 1017.8
20260901023741 54 145 0.0 0.0 0.00 0.00 0.00 93 1017.8
20260901023240 54 145 0.0 0.0 0.00 0.00 0.00 92 1017.9
20260901022741 54 145 0.0 0.0 0.00 0.00 0.00 93 1017.9
20260901022240 54 150 0.0 0.0 0.00 0.00 0.00 93 1017.9
20260901021741 54 150 0.0 0.0 0.00 0.00 0.00 93 1017.9
20260901021240 53 149 0.0 0.0 0.00 0.00 0.00 93 1017.8
20260901020740 53 148 0.0 0.0 0.00 0.00 0.00 94 1017.8
20260901020240 52 148 0.0 0.0 0.00 0.00 0.00 93 1017.9
20260901015739 52 148 0.0 0.0 0.00 0.00 0.00 93 1017.9
20260901014739 52 148 0.0 0.0 0.00 0.00 0.00 92 1018.0
20260901014240 52 148 0.0 0.0 0.00 0.00 0.00 92 1018.0
20260901013740 52 69 0.0 0.0 0.00 0.00 0.00 92 1018.0
20260901013240 52 69 0.0 0.0 0.00 0.00 0.00 92 1018.0
20260901012742 52 69 0.0 0.0 0.00 0.00 0.00 91 1018.0
20260901012241 52 69 0.0 0.0 0.00 0.00 0.00 92 1018.0
20260901010740 52 69 0.0 0.0 0.00 0.00 0.00 92 1018.0
20260901005740 52 5 0.0 0.0 0.00 0.00 0.00 91 1018.0
20260901004740 52 102 0.0 0.0 0.00 0.00 0.00 91 1018.0
20260901004241 52 102 0.0 0.0 0.00 0.00 0.00 91 1018.0
20260901003741 52 100 0.0 0.0 0.00 0.00 0.00 91 1018.1
20260901003241 52 99 0.0 0.0 0.00 0.00 0.00 91 1018.1
20260901002742 52 99 0.0 0.0 0.00 0.00 0.00 90 1018.1
20260901002240 52 99 0.0 0.0 0.00 0.00 0.00 90 1018.1
20260901001741 52 99 0.0 0.0 0.00 0.00 0.00 90 1018.1
20260901000741 52 99 0.0 0.0 0.00 0.00 0.00 90 1018.1
20260831235741 52 99 0.0 0.0 0.00 0.00 0.00 90 1018.1
20260831235240 52 99 0.0 0.0 0.00 0.00 0.00 90 1018.1
20260831234241 52 140 0.0 0.0 0.00 0.00 0.00 90 1018.3
20260831233740 52 202 0.0 0.0 0.00 0.00 0.00 90 1018.3
20260831233241 52 142 0.0 0.0 0.00 0.00 0.00 90 1018.3
20260831232741 52 140 0.0 0.0 0.00 0.00 0.00 89 1018.3
20260831232241 53 155 0.0 0.0 0.00 0.00 0.00 89 1018.3
20260831231742 53 180 0.0 0.0 0.00 0.00 0.00 89 1018.3
20260831230805 53 228 0.0 0.0 0.00 0.00 0.00 89 1018.4
20260831225742 53 228 0.0 0.0 0.00 0.00 0.00 88 1018.4
20260831224742 53 228 0.0 0.0 0.00 0.00 0.00 88 1018.4
20260831224241 54 228 0.0 0.0 0.00 0.00 0.00 87 1018.4
20260831223741 54 228 0.0 0.0 0.00 0.00 0.00 87 1018.5
20260831223241 54 228 0.0 0.0 0.00 0.00 0.00 87 1018.5
20260831222743 54 228 0.0 0.0 0.00 0.00 0.00 86 1018.5
20260831221741 55 272 0.0 0.9 0.00 0.00 0.00 85 1018.5
20260831221243 55 272 0.0 0.0 0.00 0.00 0.00 85 1018.4
20260831220742 55 285 0.0 0.0 0.00 0.00 0.00 84 1018.3
20260831220242 56 285 0.0 0.0 0.00 0.00 0.00 84 1018.3
20260831215742 56 285 0.0 0.0 0.00 0.00 0.00 84 1018.4
20260831214742 56 285 0.0 0.0 0.00 0.00 0.00 85 1018.4
20260831214242 56 285 0.0 0.0 0.00 0.00 0.00 85 1018.3
20260831213742 56 285 0.0 0.0 0.00 0.00 0.00 85 1018.2
20260831213242 56 285 0.0 0.0 0.00 0.00 0.00 84 1018.2
20260831212742 57 285 0.0 0.9 0.00 0.00 0.00 84 1018.2
20260831212242 57 285 0.0 0.9 0.00 0.00 0.00 85 1018.1
20260831211742 57 285 0.0 0.0 0.00 0.00 0.00 84 1018.1
20260831211244 57 285 0.0 0.0 0.00 0.00 0.00 84 1018.2
20260831210742 57 284 0.0 0.0 0.00 0.00 0.00 84 1018.1
20260831205742 58 284 0.0 0.0 0.00 0.00 0.00 84 1018.2
20260831205242 58 284 0.0 0.0 0.00 0.00 0.00 83 1018.2
20260831203743 59 298 0.0 0.9 0.00 0.01 0.00 83 1018.1
20260831203242 59 291 0.0 0.9 0.00 0.01 0.00 83 1018.1
20260831202742 59 292 0.0 0.9 0.00 0.01 0.00 83 1018.0
20260831202244 59 292 0.0 0.0 0.00 0.01 0.00 82 1018.0
20260831201742 60 292 0.0 0.0 0.00 0.01 0.00 81 1018.0
20260831201243 60 292 0.0 0.0 0.00 0.01 0.00 81 1018.0
20260831200744 60 292 0.0 0.0 0.00 0.01 0.00 80 1018.0
20260831200243 61 292 0.0 0.0 0.00 0.01 0.00 80 1018.0
20260831195742 61 292 0.0 0.9 0.00 0.01 0.00 80 1017.9
20260831195243 61 292 0.0 0.9 0.00 0.01 0.00 79 1017.9
20260831194744 61 293 0.0 0.0 0.00 0.01 0.00 79 1017.9
20260831194243 62 293 0.0 0.0 0.00 0.01 0.00 79 1017.8
20260831193745 62 293 0.0 0.0 0.00 0.01 0.00 79 1017.8
20260831192743 62 293 0.0 0.0 0.00 0.02 0.00 78 1017.7
20260831192243 62 293 0.0 0.0 0.00 0.02 0.00 78 1017.7
20260831191743 62 293 0.0 0.9 0.00 0.02 0.00 77 1017.6
20260831190744 63 295 0.0 0.9 0.00 0.02 0.00 77 1017.6
20260831190243 63 289 0.0 0.0 0.00 0.02 0.00 76 1017.5
20260831185743 63 301 0.0 1.7 0.00 0.02 0.00 76 1017.5
20260831184745 63 277 0.9 2.6 0.00 0.02 0.00 75 1017.4
20260831184243 63 290 0.9 2.6 0.00 0.02 0.00 74 1017.4
20260831183743 63 284 1.7 2.6 0.00 0.02 0.00 74 1017.5
20260831183244 64 284 0.9 4.3 0.00 0.02 0.00 73 1017.4
20260831182744 64 277 1.7 5.2 0.00 0.02 0.00 72 1017.4
20260831182243 64 271 2.6 6.1 0.00 0.02 0.00 71 1017.4
20260831180744 66 287 3.5 6.1 0.00 0.02 0.00 68 1017.3
20260831180244 66 287 3.5 6.1 0.00 0.02 0.00 68 1017.2
20260831175745 66 295 4.3 8.7 0.00 0.02 0.00 67 1017.1
20260831175243 67 306 4.3 8.7 0.00 0.02 0.00 67 1017.1
20260831174745 67 286 4.3 6.1 0.00 0.02 0.00 68 1017.0
20260831174243 67 279 4.3 8.7 0.00 0.02 0.00 68 1017.0
20260831173744 67 296 5.2 7.0 0.00 0.02 0.00 68 1017.0
20260831173245 67 304 4.3 7.0 0.00 0.02 0.00 68 1017.0
20260831172744 67 282 1.7 5.2 0.00 0.02 0.00 69 1017.0
20260831172244 66 291 1.7 7.0 0.00 0.02 0.00 70 1017.0
20260831171745 66 286 2.6 5.2 0.00 0.03 0.00 70 1017.0
20260831171244 66 284 2.6 5.2 0.00 0.03 0.00 70 1016.9
20260831170244 66 297 2.6 5.2 0.00 0.03 0.00 69 1016.7
20260831165743 66 285 1.7 5.2 0.00 0.04 0.00 69 1016.8
20260831165245 66 296 1.7 5.2 0.00 0.04 0.00 69 1016.7
20260831164744 66 284 1.7 5.2 0.00 0.04 0.00 69 1016.7
20260831164246 66 282 0.9 6.1 0.00 0.04 0.00 69 1016.7
20260831163244 66 274 2.6 5.2 0.00 0.04 0.00 68 1016.6
20260831162746 66 298 2.6 5.2 0.00 0.04 0.00 68 1016.7
20260831162244 66 297 1.7 5.2 0.00 0.04 0.00 68 1016.6
20260831161746 66 290 2.6 6.1 0.00 0.04 0.00 68 1016.6
20260831161244 66 289 2.6 7.0 0.00 0.04 0.00 67 1016.6
20260831160744 66 303 4.3 7.8 0.00 0.04 0.00 67 1016.6
20260831160244 66 299 0.9 5.2 0.00 0.04 0.00 67 1016.6
20260831155745 66 286 2.6 6.1 0.00 0.05 0.00 67 1016.6
20260831154745 66 291 2.6 7.0 0.00 0.06 0.00 66 1016.6
20260831154245 66 319 3.5 6.1 0.00 0.06 0.00 66 1016.5
20260831153744 65 306 5.2 7.8 0.00 0.06 0.00 66 1016.6
20260831153245 65 291 5.2 8.7 0.00 0.06 0.00 65 1016.6
20260831152746 65 310 3.5 6.1 0.00 0.07 0.00 67 1016.5
20260831151744 65 290 2.6 7.0 0.00 0.07 0.00 67 1016.5
20260831151246 65 284 5.2 10.4 0.00 0.07 0.00 66 1016.4
20260831150744 65 301 5.2 10.4 0.00 0.07 0.00 66 1016.4
20260831150244 65 296 5.2 10.4 0.00 0.07 0.00 67 1016.4
20260831145746 65 282 5.2 10.4 0.00 0.07 0.00 66 1016.4
20260831145246 65 293 4.3 7.8 0.00 0.07 0.00 68 1016.4
20260831144747 65 277 3.5 10.4 0.00 0.07 0.00 69 1016.4
20260831143747 65 291 6.1 10.4 0.00 0.07 0.00 69 1016.5
20260831143245 65 307 7.0 12.2 0.00 0.07 0.00 68 1016.3
20260831142746 65 290 6.1 11.3 0.00 0.07 0.00 68 1016.3
20260831142247 66 302 5.2 12.2 0.00 0.07 0.00 66 1016.2
20260831141745 66 290 5.2 8.7 0.00 0.07 0.00 66 1016.1
20260831141245 66 270 4.3 10.4 0.00 0.07 0.00 66 1016.1
20260831140246 66 307 4.3 8.7 0.00 0.07 0.00 64 1016.0
20260831135247 66 294 2.6 7.8 0.00 0.07 0.00 64 1016.0
20260831134748 66 295 5.2 8.7 0.00 0.07 0.00 63 1016.0
20260831133746 66 298 5.2 7.8 0.00 0.07 0.00 64 1016.0
20260831133246 66 280 4.3 10.4 0.00 0.07 0.00 63 1016.0
20260831132746 66 288 5.2 10.4 0.00 0.07 0.00 66 1015.9
20260831132246 66 298 6.1 13.0 0.00 0.07 0.00 64 1015.9
20260831131747 66 298 5.2 7.0 0.00 0.07 0.00 64 1015.9
20260831131246 65 307 5.2 10.4 0.00 0.07 0.00 65 1015.9
20260831125747 65 309 4.3 7.8 0.00 0.07 0.00 64 1015.8
20260831124246 65 305 5.2 12.2 0.00 0.07 0.00 65 1015.6
20260831123746 65 304 7.0 11.3 0.00 0.07 0.00 65 1015.5
20260831123246 64 282 5.2 14.8 0.00 0.07 0.00 65 1015.5
20260831122747 64 290 5.2 11.3 0.00 0.07 0.00 65 1015.5
20260831122248 64 298 5.2 11.3 0.00 0.07 0.00 67 1015.4
20260831121746 64 308 6.1 11.3 0.00 0.07 0.00 67 1015.4
20260831120747 64 278 8.7 15.6 0.00 0.07 0.00 67 1015.3
20260831120246 64 281 4.3 12.2 0.00 0.07 0.00 69 1015.3
20260831115748 64 304 5.2 13.0 0.00 0.07 0.00 68 1015.2
20260831115247 64 294 7.0 12.2 0.00 0.07 0.00 69 1015.2
20260831114746 64 308 6.1 11.3 0.00 0.07 0.00 69 1015.2
20260831114246 64 293 7.0 13.0 0.00 0.07 0.00 70 1015.1
20260831113746 64 291 6.1 11.3 0.00 0.07 0.00 69 1015.0
20260831113247 64 289 3.5 10.4 0.00 0.07 0.00 71 1015.0
20260831112748 63 285 4.3 8.7 0.00 0.07 0.00 68 1015.0
20260831112246 63 287 5.2 12.2 0.00 0.07 0.00 67 1014.8
20260831111747 63 293 5.2 10.4 0.00 0.07 0.00 67 1014.7
20260831111247 63 291 5.2 12.2 0.00 0.07 0.00 66 1014.8
20260831110747 63 284 4.3 7.0 0.00 0.07 0.00 67 1014.7
20260831110247 63 313 6.1 12.2 0.00 0.07 0.00 67 1014.6
20260831105747 62 296 6.1 10.4 0.00 0.07 0.00 68 1014.7
20260831105247 63 302 6.1 13.0 0.00 0.07 0.00 69 1014.6
20260831104747 63 288 5.2 12.2 0.00 0.07 0.00 69 1014.5
20260831104247 62 305 7.8 13.0 0.00 0.07 0.00 69 1014.4
20260831103747 62 289 8.7 13.9 0.00 0.07 0.00 69 1014.2
20260831103248 63 285 7.0 11.3 0.00 0.07 0.00 69 1014.3
20260831102747 63 295 6.1 12.2 0.00 0.07 0.00 71 1014.3
20260831102249 63 315 8.7 13.9 0.00 0.07 0.00 71 1014.2
20260831101748 62 307 6.1 11.3 0.00 0.07 0.00 73 1014.0
20260831101247 62 293 5.2 12.2 0.00 0.07 0.00 73 1014.1
20260831100748 62 295 5.2 11.3 0.00 0.09 0.00 73 1014.1
20260831100249 62 315 4.3 8.7 0.00 0.09 0.00 74 1014.1
20260831095748 62 305 7.0 12.2 0.00 0.10 0.00 73 1014.1
20260831095248 62 298 7.0 13.0 0.00 0.13 0.00 73 1013.9
20260831094747 62 310 6.1 10.4 0.00 0.13 0.00 74 1013.9
20260831093747 62 287 4.3 10.4 0.00 0.13 0.00 76 1013.8
20260831093249 61 289 5.2 10.4 0.00 0.13 0.00 77 1013.8
20260831092248 61 306 5.2 8.7 0.00 0.14 0.00 78 1013.8
20260831091748 61 293 2.6 8.7 0.00 0.14 0.00 79 1013.8
20260831091249 61 298 4.3 7.0 0.00 0.14 0.00 80 1013.7
20260831090748 61 299 5.2 7.0 0.00 0.15 0.00 80 1013.7
20260831090248 60 279 5.2 7.8 0.00 0.15 0.00 80 1013.6
20260831085249 60 311 5.2 12.2 0.00 0.15 0.00 81 1013.4
20260831084748 60 296 6.1 11.3 0.00 0.15 0.00 82 1013.3
20260831084248 60 291 6.1 8.7 0.00 0.15 0.00 82 1013.1
20260831083748 60 297 5.2 11.3 0.00 0.16 0.00 83 1013.0
20260831083248 60 304 6.1 12.2 0.00 0.16 0.00 82 1012.9
20260831082748 60 306 7.0 13.9 0.00 0.16 0.00 83 1012.9
20260831082249 59 292 6.1 11.3 0.00 0.16 0.00 82 1012.9
20260831081749 60 301 4.3 8.7 0.00 0.16 0.00 83 1012.9
20260831080749 59 280 5.2 10.4 0.00 0.16 0.00 83 1012.8
20260831080249 59 276 4.3 8.7 0.00 0.17 0.00 83 1012.7
20260831075250 59 284 5.2 10.4 0.00 0.17 0.00 83 1012.6
20260831074748 59 293 4.3 7.0 0.00 0.19 0.00 84 1012.5
20260831074248 59 294 1.7 5.2 0.00 0.19 0.00 85 1012.4